Погода в Вешкелице

Россия / Республика Карелия     61°55′08″N   32°48′56″E
темп.,
°C
ветер,
м/с
пор.,
м/с
влажн.,
%
обл.,
%
осадки,
мм/ч
давл.,
гПа
погр.,
м
22 апреля, чт
чт2200:00+1ююз1299100 0.2 100188
03:00+1юз2499100 0.6 1002183
06:000юз2596100 0.2 1002356
09:00+1ююз3796100 0.5 1003465
12:00+2ююз3694100 0.1 1004544
15:00+3юз3892100 0.3 1006574
18:00+6ююз257942 0.0 1007618
21:00+2ююв22965 0.0 100831
23 апреля, пт
пт2300:00+2вюв249633 0.0 100763
03:00+3вюв41390100 0.0 1005275
06:00+4юв31094100 0.3 1004415
09:00+6ю4786100 0.8 1005749
12:00+6ююв3685100 1.4 1006662
15:00+8ю4669100 2.1 10061103
18:00+6ююв3678100 0.5 1007789
21:00+3ююв24905 0.8 100875
24 апреля, сб
сб2400:00+1юв24935 0.0 100987
03:000юв2596100 0.0 100892
06:00+1юв2588100 0.0 1008128
09:00+4вюв2374100 0.0 1008318
12:00+6всв2372100 0.1 1007800
15:00+5св2383100 0.7 1006596
18:00+3с3697100 1.6 1005436
21:00+2з3698100 3.0 1004396
25 апреля, вс
вс2500:00+2зюз3598100 0.3 1003477
03:00+2юз2598100 0.4 1003281
06:00+2юз2398100 0.4 1003294
09:00+2зюз2496100 0.6 1004369
12:00+5зсз2369100 0.0 1005960
15:00+6сз2366100 0.1 10051032
18:00+5ссз3481100 0.3 1006561
21:00+3ссз2693100 0.4 1007354
26 апреля, пн
пн2600:00+2зсз3995100 0.3 1007521
03:00+1зюз31097100 1.4 1006439
06:00+1зюз3898100 1.6 1005330
09:00+1зюз2599100 4.1 1005170
12:00+1зсз13100100 2.2 1006251
15:00+1с24100100 4.6 1007218
18:00+1с2799100 2.2 1007271
21:00+1с3998100 3.7 1007592